GSAT0207 (GALILEO 15)

Last updated on Tue Jul 08 2025 00:02:33 GMT+0000 (Coordinated Universal Time)

1 41859U 16069A 25187.83417592 -.00000021 00000+0 00000+0 0 9993 2 41859 55.2867 110.6532 0004808 321.6039 38.3433 1.70473801 53513
UTC large
Height (km)
Speed (km/s)
/
Latitude / Longitude
Inclination (degrees)
Orbital Period (minutes)
Azimuth
Elevation
Range (km)
Doppler Factor

Next 0 passes for location: London (51.5072 / 0.1276)

Sorry there are no passes over London.